| time (UTC) | temp F | wind direction | speed knots | gust knots | rain 1hr in | rain 24hr in | rain mn in | humidity % | barometer mb |
| 20260505140419 | 55 | 215 | 3.5 | 9.6 | 0.00 | 0.10 | 0.06 | 84 | 1014.7 |
| 20260505124928 | 54 | 237 | 5.2 | 9.6 | 0.00 | 0.10 | 0.06 | 83 | 1014.3 |
| 20260505124434 | 54 | 275 | 5.2 | 13.9 | 0.00 | 0.10 | 0.06 | 83 | 1014.3 |
| 20260505123917 | 54 | 263 | 8.7 | 13.9 | 0.00 | 0.10 | 0.06 | 83 | 1014.4 |
| 20260505123445 | 54 | 261 | 7.0 | 11.3 | 0.00 | 0.10 | 0.06 | 83 | 1014.4 |
| 20260505122930 | 54 | 229 | 6.1 | 12.2 | 0.00 | 0.10 | 0.06 | 83 | 1014.3 |
| 20260505122417 | 54 | 273 | 6.1 | 12.2 | 0.00 | 0.10 | 0.06 | 83 | 1014.4 |
| 20260505121944 | 54 | 265 | 7.0 | 12.2 | 0.00 | 0.10 | 0.06 | 83 | 1014.3 |
| 20260505121457 | 54 | 221 | 6.1 | 13.0 | 0.00 | 0.10 | 0.06 | 83 | 1014.3 |
| 20260505120923 | 54 | 244 | 7.0 | 13.0 | 0.00 | 0.10 | 0.06 | 83 | 1014.4 |
| 20260505120427 | 54 | 264 | 7.8 | 13.0 | 0.00 | 0.10 | 0.06 | 82 | 1014.2 |
| 20260505115923 | 54 | 238 | 5.2 | 9.6 | 0.00 | 0.10 | 0.06 | 83 | 1014.3 |
| 20260505115431 | 54 | 254 | 5.2 | 9.6 | 0.00 | 0.10 | 0.06 | 83 | 1014.3 |
| 20260505114918 | 54 | 242 | 4.3 | 9.6 | 0.00 | 0.10 | 0.06 | 83 | 1014.3 |
| 20260505114425 | 54 | 245 | 5.2 | 10.4 | 0.00 | 0.10 | 0.06 | 82 | 1014.4 |
| 20260505113932 | 54 | 258 | 4.3 | 10.4 | 0.00 | 0.10 | 0.06 | 82 | 1014.4 |
| 20260505113420 | 54 | 229 | 4.3 | 8.7 | 0.00 | 0.10 | 0.06 | 82 | 1014.3 |
| 20260505112922 | 54 | 271 | 5.2 | 7.8 | 0.00 | 0.10 | 0.06 | 82 | 1014.6 |
| 20260505112428 | 54 | 303 | 2.6 | 7.8 | 0.00 | 0.10 | 0.06 | 82 | 1014.6 |
| 20260505111933 | 54 | 299 | 2.6 | 8.7 | 0.00 | 0.10 | 0.06 | 82 | 1014.6 |
| 20260505111421 | 54 | 268 | 5.2 | 9.6 | 0.00 | 0.10 | 0.06 | 81 | 1014.5 |
| 20260505110927 | 54 | 249 | 5.2 | 9.6 | 0.00 | 0.10 | 0.06 | 81 | 1014.4 |
| 20260505110436 | 54 | 242 | 4.3 | 10.4 | 0.00 | 0.10 | 0.06 | 81 | 1014.4 |
| 20260505101944 | 54 | 249 | 6.1 | 10.4 | 0.01 | 0.10 | 0.06 | 84 | 1014.4 |
| 20260505101426 | 54 | 284 | 5.2 | 11.3 | 0.01 | 0.10 | 0.06 | 84 | 1014.5 |
| 20260505100934 | 54 | 256 | 6.1 | 11.3 | 0.01 | 0.10 | 0.06 | 85 | 1014.5 |
| 20260505100448 | 54 | 268 | 4.3 | 7.0 | 0.01 | 0.10 | 0.06 | 85 | 1014.7 |
| 20260505100003 | 54 | 261 | 4.3 | 7.8 | 0.01 | 0.10 | 0.06 | 84 | 1014.7 |
| 20260505095457 | 54 | 263 | 3.5 | 9.6 | 0.01 | 0.10 | 0.06 | 85 | 1014.6 |
| 20260505094923 | 54 | 313 | 5.2 | 10.4 | 0.01 | 0.10 | 0.06 | 85 | 1014.7 |
| 20260505094425 | 54 | 289 | 6.1 | 12.2 | 0.01 | 0.10 | 0.06 | 85 | 1014.7 |
| 20260505093933 | 54 | 278 | 6.1 | 12.2 | 0.01 | 0.10 | 0.06 | 85 | 1014.7 |
| 20260505093420 | 54 | 244 | 6.1 | 11.3 | 0.01 | 0.09 | 0.05 | 85 | 1014.8 |
| 20260505092927 | 54 | 277 | 7.0 | 13.0 | 0.01 | 0.09 | 0.05 | 85 | 1014.8 |
| 20260505092435 | 54 | 270 | 7.0 | 13.0 | 0.01 | 0.09 | 0.05 | 85 | 1014.8 |
| 20260505091941 | 54 | 254 | 6.1 | 11.3 | 0.01 | 0.09 | 0.05 | 85 | 1015.0 |
| 20260505091427 | 54 | 242 | 5.2 | 11.3 | 0.01 | 0.09 | 0.05 | 85 | 1015.1 |
| 20260505090931 | 54 | 302 | 7.0 | 11.3 | 0.02 | 0.09 | 0.05 | 85 | 1015.2 |
| 20260505090418 | 54 | 268 | 4.3 | 8.7 | 0.02 | 0.09 | 0.05 | 85 | 1015.1 |
| 20260505085926 | 54 | 242 | 4.3 | 8.7 | 0.03 | 0.09 | 0.05 | 85 | 1015.0 |
| 20260505085433 | 54 | 263 | 3.5 | 9.6 | 0.03 | 0.09 | 0.05 | 85 | 1015.2 |
| 20260505084948 | 54 | 256 | 5.2 | 9.6 | 0.04 | 0.09 | 0.05 | 85 | 1015.2 |
| 20260505084433 | 54 | 249 | 5.2 | 11.3 | 0.04 | 0.09 | 0.05 | 85 | 1015.1 |
| 20260505083942 | 54 | 184 | 4.3 | 9.6 | 0.04 | 0.09 | 0.05 | 85 | 1015.2 |
| 20260505083423 | 54 | 209 | 5.2 | 9.6 | 0.04 | 0.08 | 0.04 | 85 | 1015.2 |
| 20260505082932 | 54 | 247 | 5.2 | 11.3 | 0.04 | 0.08 | 0.04 | 85 | 1015.1 |
| 20260505082419 | 54 | 242 | 5.2 | 11.3 | 0.04 | 0.08 | 0.04 | 85 | 1015.1 |
| 20260505081955 | 54 | 247 | 4.3 | 9.6 | 0.04 | 0.08 | 0.04 | 85 | 1015.1 |
| 20260505081418 | 54 | 239 | 4.3 | 8.7 | 0.04 | 0.08 | 0.04 | 85 | 1015.1 |
| 20260505080925 | 54 | 265 | 5.2 | 8.7 | 0.03 | 0.07 | 0.03 | 85 | 1015.2 |
| 20260505080431 | 54 | 190 | 3.5 | 7.8 | 0.03 | 0.07 | 0.03 | 85 | 1015.4 |
| 20260505075931 | 54 | 222 | 4.3 | 7.8 | 0.02 | 0.06 | 0.02 | 85 | 1015.5 |
| 20260505075418 | 53 | 252 | 3.5 | 7.8 | 0.02 | 0.06 | 0.02 | 85 | 1015.5 |
| 20260505074926 | 53 | 268 | 3.5 | 7.8 | 0.01 | 0.05 | 0.01 | 85 | 1015.4 |
| 20260505074429 | 53 | 268 | 4.3 | 8.7 | 0.01 | 0.05 | 0.01 | 84 | 1015.3 |
| 20260505073935 | 53 | 217 | 3.5 | 8.7 | 0.01 | 0.05 | 0.01 | 84 | 1015.3 |
| 20260505073451 | 53 | 231 | 3.5 | 7.0 | 0.00 | 0.04 | 0.00 | 84 | 1015.4 |
| 20260505072938 | 53 | 254 | 4.3 | 7.0 | 0.00 | 0.04 | 0.00 | 84 | 1015.6 |
| 20260505072421 | 53 | 244 | 3.5 | 7.0 | 0.00 | 0.04 | 0.00 | 84 | 1015.7 |
| 20260505071930 | 53 | 275 | 3.5 | 7.0 | 0.00 | 0.04 | 0.00 | 84 | 1015.9 |
| 20260505071418 | 53 | 297 | 2.6 | 7.8 | 0.01 | 0.04 | 0.00 | 84 | 1015.8 |
| 20260505070946 | 53 | 278 | 3.5 | 7.8 | 0.01 | 0.04 | 0.00 | 84 | 1015.8 |
| 20260505070433 | 53 | 295 | 2.6 | 7.8 | 0.01 | 0.04 | 0.00 | 84 | 1015.6 |
| 20260505065922 | 53 | 251 | 5.2 | 7.8 | 0.01 | 0.04 | 0.04 | 84 | 1015.6 |
| 20260505065457 | 53 | 224 | 4.3 | 7.8 | 0.02 | 0.04 | 0.04 | 84 | 1015.6 |
| 20260505064923 | 53 | 254 | 3.5 | 7.0 | 0.02 | 0.04 | 0.04 | 84 | 1015.4 |
| 20260505064428 | 53 | 282 | 3.5 | 8.7 | 0.02 | 0.04 | 0.04 | 83 | 1015.3 |
| 20260505063918 | 53 | 268 | 4.3 | 13.0 | 0.02 | 0.04 | 0.04 | 83 | 1015.1 |
| 20260505063426 | 53 | 289 | 7.0 | 13.0 | 0.02 | 0.04 | 0.04 | 83 | 1015.0 |
| 20260505062933 | 53 | 264 | 7.8 | 12.2 | 0.02 | 0.04 | 0.04 | 83 | 1014.9 |
| 20260505062422 | 53 | 271 | 7.8 | 13.0 | 0.02 | 0.04 | 0.04 | 82 | 1014.8 |
| 20260505061922 | 53 | 265 | 8.7 | 13.0 | 0.01 | 0.03 | 0.03 | 81 | 1014.9 |
| 20260505061430 | 53 | 280 | 7.0 | 13.0 | 0.02 | 0.03 | 0.03 | 81 | 1014.9 |
| 20260505060917 | 53 | 280 | 6.1 | 13.0 | 0.02 | 0.03 | 0.03 | 80 | 1015.1 |
| 20260505060424 | 53 | 304 | 7.0 | 11.3 | 0.02 | 0.03 | 0.03 | 80 | 1015.2 |
| 20260505055926 | 53 | 258 | 4.3 | 12.2 | 0.02 | 0.03 | 0.03 | 80 | 1015.4 |
| 20260505055434 | 53 | 261 | 5.2 | 12.2 | 0.02 | 0.02 | 0.02 | 79 | 1015.4 |
| 20260505054940 | 53 | 283 | 7.0 | 12.2 | 0.02 | 0.02 | 0.02 | 80 | 1015.4 |
| 20260505054422 | 53 | 273 | 5.2 | 8.7 | 0.02 | 0.02 | 0.02 | 81 | 1015.4 |
| 20260505053924 | 54 | 278 | 5.2 | 8.7 | 0.02 | 0.02 | 0.02 | 81 | 1015.3 |
| 20260505053433 | 54 | 256 | 5.2 | 9.6 | 0.02 | 0.02 | 0.02 | 82 | 1015.2 |
| 20260505052919 | 54 | 244 | 5.2 | 9.6 | 0.02 | 0.02 | 0.02 | 82 | 1015.2 |
| 20260505052425 | 54 | 239 | 2.6 | 5.2 | 0.02 | 0.02 | 0.02 | 82 | 1015.2 |
| 20260505051933 | 54 | 213 | 2.6 | 5.2 | 0.02 | 0.02 | 0.02 | 82 | 1015.1 |
| 20260505051421 | 54 | 244 | 2.6 | 4.3 | 0.01 | 0.01 | 0.01 | 82 | 1015.2 |
| 20260505050927 | 54 | 247 | 2.6 | 8.7 | 0.01 | 0.01 | 0.01 | 81 | 1015.3 |
| 20260505050430 | 54 | 227 | 3.5 | 8.7 | 0.01 | 0.01 | 0.01 | 81 | 1015.5 |
| 20260505041429 | 55 | 299 | 4.3 | 11.3 | 0.00 | 0.00 | 0.00 | 76 | 1015.8 |
| 20260505040936 | 55 | 273 | 3.5 | 12.2 | 0.00 | 0.00 | 0.00 | 76 | 1015.5 |
| 20260505040450 | 55 | 289 | 4.3 | 13.0 | 0.00 | 0.00 | 0.00 | 75 | 1015.3 |
| 20260505035938 | 55 | 308 | 5.2 | 13.0 | 0.00 | 0.00 | 0.00 | 75 | 1015.2 |
| 20260505035452 | 55 | 263 | 7.0 | 13.0 | 0.00 | 0.00 | 0.00 | 75 | 1015.1 |
| 20260505034919 | 56 | 228 | 7.8 | 13.0 | 0.00 | 0.00 | 0.00 | 75 | 1014.9 |
| 20260505034427 | 56 | 293 | 5.2 | 13.0 | 0.00 | 0.00 | 0.00 | 75 | 1014.8 |
| 20260505033933 | 56 | 242 | 6.1 | 12.2 | 0.00 | 0.00 | 0.00 | 76 | 1014.7 |
| 20260505033421 | 56 | 273 | 4.3 | 12.2 | 0.00 | 0.00 | 0.00 | 76 | 1014.8 |
| 20260505032928 | 56 | 308 | 6.1 | 9.6 | 0.00 | 0.00 | 0.00 | 77 | 1014.8 |
| 20260505032439 | 56 | 243 | 4.3 | 11.3 | 0.00 | 0.00 | 0.00 | 77 | 1014.7 |
| 20260505031951 | 56 | 282 | 5.2 | 11.3 | 0.00 | 0.00 | 0.00 | 77 | 1014.7 |
| 20260505031436 | 56 | 225 | 4.3 | 11.3 | 0.00 | 0.00 | 0.00 | 78 | 1014.5 |
| 20260505030942 | 56 | 282 | 6.1 | 11.3 | 0.00 | 0.00 | 0.00 | 78 | 1014.5 |
| 20260505030427 | 56 | 263 | 5.2 | 8.7 | 0.00 | 0.00 | 0.00 | 79 | 1014.5 |
| 20260505025934 | 56 | 275 | 5.2 | 8.7 | 0.00 | 0.00 | 0.00 | 79 | 1014.5 |
| 20260505025420 | 57 | 268 | 2.6 | 7.8 | 0.00 | 0.00 | 0.00 | 80 | 1014.6 |
| 20260505024947 | 57 | 295 | 3.5 | 8.7 | 0.00 | 0.00 | 0.00 | 79 | 1014.7 |
| 20260505024430 | 57 | 22 | 5.2 | 8.7 | 0.00 | 0.00 | 0.00 | 79 | 1014.7 |
| 20260505023918 | 57 | 218 | 4.3 | 11.3 | 0.00 | 0.00 | 0.00 | 78 | 1014.7 |
| 20260505023423 | 57 | 291 | 6.1 | 13.9 | 0.00 | 0.00 | 0.00 | 78 | 1014.7 |
| 20260505022928 | 56 | 206 | 5.2 | 13.9 | 0.00 | 0.00 | 0.00 | 78 | 1014.7 |
| 20260505022435 | 56 | 270 | 7.8 | 14.8 | 0.00 | 0.00 | 0.00 | 78 | 1014.5 |
| 20260505021922 | 56 | 271 | 7.8 | 14.8 | 0.00 | 0.00 | 0.00 | 79 | 1014.5 |
| 20260505021430 | 56 | 258 | 8.7 | 13.9 | 0.00 | 0.00 | 0.00 | 79 | 1014.6 |
| 20260505020919 | 57 | 270 | 8.7 | 13.9 | 0.00 | 0.00 | 0.00 | 80 | 1014.6 |
| 20260505020422 | 57 | 242 | 5.2 | 10.4 | 0.00 | 0.00 | 0.00 | 80 | 1014.6 |
| 20260505015928 | 57 | 17 | 5.2 | 12.2 | 0.00 | 0.00 | 0.00 | 79 | 1014.7 |
| 20260505015436 | 57 | 282 | 6.1 | 15.6 | 0.00 | 0.00 | 0.00 | 79 | 1014.8 |
| 20260505014942 | 57 | 264 | 7.0 | 15.6 | 0.00 | 0.00 | 0.00 | 79 | 1014.9 |
| 20260505014429 | 57 | 259 | 7.0 | 13.9 | 0.00 | 0.00 | 0.00 | 79 | 1015.0 |
| 20260505013917 | 57 | 277 | 8.7 | 13.9 | 0.00 | 0.00 | 0.00 | 79 | 1014.9 |
| 20260505013440 | 57 | 275 | 7.0 | 14.8 | 0.00 | 0.00 | 0.00 | 79 | 1015.0 |
| 20260505012952 | 57 | 270 | 9.6 | 17.4 | 0.00 | 0.00 | 0.00 | 79 | 1015.0 |
| 20260505012420 | 57 | 298 | 10.4 | 17.4 | 0.00 | 0.00 | 0.00 | 79 | 1014.9 |
| 20260505011928 | 58 | 254 | 6.1 | 13.9 | 0.00 | 0.00 | 0.00 | 79 | 1014.9 |
| 20260505011436 | 58 | 296 | 7.8 | 13.9 | 0.00 | 0.00 | 0.00 | 79 | 1014.9 |
| 20260505010943 | 58 | 263 | 6.1 | 13.0 | 0.00 | 0.00 | 0.00 | 79 | 1015.0 |
| 20260505010430 | 58 | 282 | 8.7 | 13.9 | 0.00 | 0.00 | 0.00 | 79 | 1015.0 |
| 20260505005930 | 58 | 292 | 7.8 | 16.5 | 0.00 | 0.00 | 0.00 | 79 | 1015.1 |
| 20260505005416 | 58 | 277 | 6.1 | 16.5 | 0.00 | 0.00 | 0.00 | 79 | 1015.2 |
| 20260505004923 | 58 | 273 | 7.0 | 12.2 | 0.00 | 0.00 | 0.00 | 79 | 1015.1 |
| 20260505004428 | 58 | 270 | 7.0 | 14.8 | 0.00 | 0.00 | 0.00 | 79 | 1015.2 |
| 20260505003934 | 58 | 271 | 7.0 | 14.8 | 0.00 | 0.00 | 0.00 | 79 | 1015.3 |
| 20260505003419 | 58 | 277 | 4.3 | 13.0 | 0.00 | 0.00 | 0.00 | 79 | 1015.3 |
| 20260505002946 | 58 | 273 | 7.0 | 13.9 | 0.00 | 0.00 | 0.00 | 78 | 1015.2 |
| 20260505002427 | 58 | 240 | 7.8 | 15.6 | 0.00 | 0.00 | 0.00 | 78 | 1015.3 |
| 20260505001935 | 58 | 287 | 8.7 | 15.6 | 0.00 | 0.00 | 0.00 | 78 | 1015.4 |
| 20260505001442 | 58 | 243 | 7.0 | 17.4 | 0.00 | 0.00 | 0.00 | 78 | 1015.3 |
| 20260505000927 | 58 | 277 | 8.7 | 17.4 | 0.00 | 0.00 | 0.00 | 77 | 1015.3 |
| 20260505000435 | 59 | 305 | 7.8 | 13.0 | 0.00 | 0.00 | 0.00 | 77 | 1015.3 |
| 20260504235923 | 59 | 151 | 6.1 | 13.0 | 0.00 | 0.00 | 0.00 | 77 | 1015.2 |
| 20260504235449 | 59 | 284 | 4.3 | 11.3 | 0.00 | 0.00 | 0.00 | 77 | 1015.3 |
| 20260504234930 | 59 | 262 | 5.2 | 12.2 | 0.00 | 0.00 | 0.00 | 77 | 1015.2 |
| 20260504234417 | 59 | 261 | 6.1 | 12.2 | 0.00 | 0.00 | 0.00 | 77 | 1015.2 |
| 20260504233923 | 59 | 306 | 6.1 | 13.0 | 0.00 | 0.00 | 0.00 | 77 | 1015.2 |
| 20260504233430 | 59 | 243 | 5.2 | 13.0 | 0.00 | 0.00 | 0.00 | 77 | 1015.1 |
| 20260504232917 | 59 | 270 | 7.0 | 13.0 | 0.00 | 0.00 | 0.00 | 76 | 1015.2 |
| 20260504232424 | 59 | 263 | 6.1 | 11.3 | 0.00 | 0.00 | 0.00 | 76 | 1015.2 |
| 20260504231928 | 59 | 249 | 5.2 | 10.4 | 0.00 | 0.00 | 0.00 | 76 | 1015.3 |
| 20260504231431 | 59 | 308 | 3.5 | 13.0 | 0.00 | 0.00 | 0.00 | 75 | 1015.2 |
| 20260504230949 | 59 | 268 | 7.0 | 13.0 | 0.00 | 0.00 | 0.00 | 75 | 1015.2 |
| 20260504230435 | 60 | 275 | 6.1 | 12.2 | 0.00 | 0.00 | 0.00 | 74 | 1015.2 |
| 20260504225921 | 59 | 236 | 5.2 | 10.4 | 0.00 | 0.00 | 0.00 | 75 | 1015.2 |
| 20260504225448 | 60 | 302 | 6.1 | 11.3 | 0.00 | 0.00 | 0.00 | 75 | 1015.2 |
| 20260504224933 | 60 | 287 | 6.1 | 11.3 | 0.00 | 0.00 | 0.00 | 74 | 1015.3 |
| 20260504224418 | 60 | 284 | 4.3 | 11.3 | 0.00 | 0.00 | 0.00 | 74 | 1015.3 |
| 20260504223919 | 60 | 282 | 6.1 | 12.2 | 0.00 | 0.00 | 0.00 | 74 | 1015.3 |
| 20260504223425 | 60 | 207 | 4.3 | 13.9 | 0.00 | 0.00 | 0.00 | 74 | 1015.3 |
| 20260504222932 | 60 | 263 | 5.2 | 13.9 | 0.00 | 0.00 | 0.00 | 73 | 1015.4 |
| 20260504222440 | 61 | 288 | 5.2 | 12.2 | 0.00 | 0.00 | 0.00 | 73 | 1015.4 |
| 20260504221924 | 61 | 276 | 5.2 | 13.0 | 0.00 | 0.00 | 0.00 | 73 | 1015.2 |
| 20260504221431 | 61 | 273 | 6.1 | 16.5 | 0.00 | 0.00 | 0.00 | 72 | 1015.3 |
| 20260504220936 | 61 | 268 | 8.7 | 15.6 | 0.00 | 0.00 | 0.00 | 71 | 1015.4 |
| 20260504220419 | 61 | 208 | 8.7 | 15.6 | 0.00 | 0.00 | 0.00 | 71 | 1015.4 |
| 20260504215925 | 61 | 268 | 8.7 | 15.6 | 0.00 | 0.00 | 0.00 | 72 | 1015.4 |
| 20260504215457 | 61 | 314 | 7.8 | 14.8 | 0.00 | 0.00 | 0.00 | 72 | 1015.3 |
| 20260504214923 | 61 | 298 | 7.8 | 13.9 | 0.00 | 0.00 | 0.00 | 71 | 1015.3 |
| 20260504214430 | 61 | 283 | 7.8 | 13.9 | 0.00 | 0.00 | 0.00 | 70 | 1015.2 |
| 20260504213935 | 61 | 292 | 6.1 | 15.6 | 0.00 | 0.00 | 0.00 | 71 | 1015.2 |
| 20260504213422 | 61 | 303 | 9.6 | 15.6 | 0.00 | 0.00 | 0.00 | 71 | 1015.3 |
| 20260504212924 | 61 | 294 | 10.4 | 15.6 | 0.00 | 0.00 | 0.00 | 70 | 1015.3 |
| 20260504212430 | 62 | 277 | 6.1 | 13.9 | 0.00 | 0.00 | 0.00 | 70 | 1015.4 |
| 20260504211918 | 62 | 306 | 5.2 | 12.2 | 0.00 | 0.00 | 0.00 | 70 | 1015.5 |
| 20260504211427 | 61 | 318 | 7.8 | 12.2 | 0.00 | 0.00 | 0.00 | 70 | 1015.5 |
| 20260504210934 | 61 | 271 | 7.0 | 13.9 | 0.00 | 0.00 | 0.00 | 70 | 1015.5 |
| 20260504210419 | 61 | 244 | 7.8 | 13.9 | 0.00 | 0.00 | 0.00 | 70 | 1015.5 |
| 20260504205946 | 61 | 277 | 7.0 | 13.9 | 0.00 | 0.00 | 0.00 | 71 | 1015.6 |
| 20260504205429 | 61 | 274 | 4.3 | 12.2 | 0.00 | 0.00 | 0.00 | 71 | 1015.6 |
| 20260504204936 | 60 | 279 | 7.8 | 14.8 | 0.00 | 0.00 | 0.00 | 71 | 1015.6 |
| 20260504204425 | 61 | 250 | 8.7 | 14.8 | 0.00 | 0.00 | 0.00 | 70 | 1015.6 |
| 20260504203930 | 61 | 280 | 8.7 | 14.8 | 0.00 | 0.00 | 0.00 | 70 | 1015.7 |
| 20260504203436 | 61 | 282 | 8.7 | 14.8 | 0.00 | 0.00 | 0.00 | 70 | 1015.6 |
| 20260504202921 | 61 | 263 | 7.0 | 13.0 | 0.00 | 0.00 | 0.00 | 71 | 1015.6 |
| 20260504202427 | 61 | 277 | 7.0 | 14.8 | 0.00 | 0.00 | 0.00 | 71 | 1015.5 |
| 20260504201936 | 61 | 230 | 8.7 | 14.8 | 0.00 | 0.00 | 0.00 | 70 | 1015.5 |
| 20260504201418 | 62 | 306 | 7.8 | 14.8 | 0.00 | 0.00 | 0.00 | 69 | 1015.4 |
| 20260504200924 | 62 | 238 | 6.1 | 13.0 | 0.00 | 0.00 | 0.00 | 69 | 1015.4 |
| 20260504200431 | 61 | 240 | 6.1 | 13.0 | 0.00 | 0.00 | 0.00 | 68 | 1015.6 |
| 20260504195916 | 62 | 245 | 6.1 | 12.2 | 0.00 | 0.00 | 0.00 | 69 | 1015.6 |
| 20260504195424 | 62 | 248 | 6.1 | 12.2 | 0.00 | 0.00 | 0.00 | 70 | 1015.7 |
| 20260504194931 | 61 | 275 | 4.3 | 13.0 | 0.00 | 0.00 | 0.00 | 70 | 1015.6 |
| 20260504194435 | 61 | 326 | 6.1 | 13.0 | 0.00 | 0.00 | 0.00 | 70 | 1015.7 |
| 20260504193950 | 61 | 282 | 7.0 | 11.3 | 0.00 | 0.00 | 0.00 | 72 | 1015.8 |
| 20260504193435 | 61 | 230 | 6.1 | 13.0 | 0.00 | 0.00 | 0.00 | 72 | 1015.8 |
| 20260504192921 | 61 | 287 | 7.0 | 13.0 | 0.00 | 0.00 | 0.00 | 73 | 1015.6 |
| 20260504192427 | 61 | 254 | 7.8 | 13.0 | 0.00 | 0.00 | 0.00 | 73 | 1015.5 |
| 20260504191934 | 61 | 254 | 5.2 | 13.9 | 0.00 | 0.00 | 0.00 | 73 | 1015.7 |
| 20260504191452 | 61 | 321 | 6.1 | 12.2 | 0.00 | 0.00 | 0.00 | 74 | 1015.8 |
| 20260504190921 | 61 | 323 | 5.2 | 12.2 | 0.00 | 0.00 | 0.00 | 73 | 1015.9 |
| 20260504190428 | 60 | 259 | 4.3 | 13.9 | 0.00 | 0.00 | 0.00 | 74 | 1015.9 |
| 20260504185921 | 60 | 247 | 7.8 | 13.9 | 0.00 | 0.00 | 0.00 | 74 | 1015.8 |
| 20260504185431 | 61 | 256 | 6.1 | 13.9 | 0.00 | 0.00 | 0.00 | 74 | 1015.8 |
| 20260504184917 | 61 | 278 | 7.0 | 13.9 | 0.00 | 0.00 | 0.00 | 72 | 1015.9 |
| 20260504184423 | 61 | 230 | 4.3 | 12.2 | 0.00 | 0.00 | 0.00 | 73 | 1015.8 |
| 20260504183949 | 61 | 276 | 5.2 | 11.3 | 0.00 | 0.00 | 0.00 | 73 | 1015.8 |
| 20260504183437 | 61 | 225 | 7.0 | 12.2 | 0.00 | 0.00 | 0.00 | 73 | 1015.7 |
| 20260504182924 | 60 | 264 | 8.7 | 12.2 | 0.00 | 0.00 | 0.00 | 72 | 1015.7 |
| 20260504182424 | 61 | 275 | 6.1 | 11.3 | 0.00 | 0.00 | 0.00 | 73 | 1015.8 |
| 20260504181929 | 61 | 230 | 4.3 | 14.8 | 0.00 | 0.00 | 0.00 | 74 | 1015.6 |
| 20260504181432 | 61 | 261 | 9.6 | 14.8 | 0.00 | 0.00 | 0.00 | 73 | 1015.7 |
| 20260504180921 | 61 | 206 | 5.2 | 13.0 | 0.00 | 0.00 | 0.00 | 74 | 1015.8 |
| 20260504180427 | 60 | 244 | 3.5 | 13.0 | 0.00 | 0.00 | 0.00 | 73 | 1015.8 |
| 20260504175931 | 61 | 256 | 7.0 | 12.2 | 0.00 | 0.00 | 0.00 | 73 | 1015.6 |
| 20260504175419 | 60 | 208 | 6.1 | 9.6 | 0.00 | 0.00 | 0.00 | 73 | 1015.6 |
| 20260504174921 | 60 | 284 | 5.2 | 10.4 | 0.00 | 0.00 | 0.00 | 74 | 1015.5 |
| 20260504174430 | 60 | 251 | 5.2 | 13.0 | 0.00 | 0.00 | 0.00 | 74 | 1015.5 |
| 20260504173916 | 60 | 273 | 7.0 | 13.0 | 0.00 | 0.00 | 0.00 | 72 | 1015.4 |
| 20260504173420 | 60 | 268 | 4.3 | 9.6 | 0.00 | 0.00 | 0.00 | 73 | 1015.4 |
| 20260504172945 | 60 | 288 | 5.2 | 11.3 | 0.00 | 0.00 | 0.00 | 73 | 1015.4 |
| 20260504172431 | 61 | 282 | 7.0 | 11.3 | 0.00 | 0.00 | 0.00 | 71 | 1015.3 |
| 20260504171917 | 61 | 273 | 5.2 | 11.3 | 0.00 | 0.00 | 0.00 | 72 | 1015.3 |
| 20260504171417 | 61 | 185 | 4.3 | 7.8 | 0.00 | 0.00 | 0.00 | 72 | 1015.3 |
| 20260504170942 | 60 | 272 | 3.5 | 9.6 | 0.00 | 0.00 | 0.00 | 72 | 1015.2 |
| 20260504170429 | 60 | 268 | 3.5 | 12.2 | 0.00 | 0.00 | 0.00 | 72 | 1015.0 |
| 20260504160434 | 58 | 249 | 3.5 | 7.8 | 0.00 | 0.00 | 0.00 | 77 | 1015.1 |
| 20260504150927 | 59 | 346 | 1.7 | 2.6 | 0.00 | 0.00 | 0.00 | 80 | 1014.9 |
| 20260504150431 | 58 | 160 | 0.9 | 3.5 | 0.00 | 0.00 | 0.00 | 81 | 1014.9 |